Strona główna
METAR-TAF:

METAR-TAF

Lotnisko :

Reims, Francja

Szerokość geograficzna: 49-12-31N, Długość geograficzna: 004-09-24E, wysokość: 95 m

Aktualna obserwacja pogody

Raport powstał 35 minut temu, godzina 10:30 UTC
Wiatr 11 kt od zachodnio-południowy zachód, zmienny między południowo-południowy zachód i zachód
Temperatura 8°C
Wilgotność 71%
Ciśnienie 1027 hPa
Widzialność 10 km lub więcej
Brak chmur poniżej 1500 m i brak chmur cumulonimbus

METAR: LFQA 181030Z AUTO 24011KT 200V270 CAVOK 08/03 Q1027

czas: 12:05 (11:05 UTC)


TAF: brakujący

Obserwacja i prognoza pogody dla ponad 4000 lotnisk (raport METAR i TAF).

Dostępne stacje oznaczono żółtymi i czerwonymi punktami na mapie.

Najedź kursorem aby zobaczyć nazwę stacji.

Kliknij aby zobaczyć obserwacje i prognozy pogody.

Aby zmienić mapę: kliknij na zielony przycisk z czarnym krzyżykiem, aby powiększyć; na zielony przycisk z myślnikiem, aby pomniejszyć; na zielone strzałki, aby przejść do map sąsiednich.


METAR-TAF: